| time (UTC) | temp F | wind direction | speed MPH | gust MPH | rain 1hr in | rain 24hr in | rain mn in | humidity % | barometer mb |
| 20260906213006 | 81 | 12 | 8.0 | 11.0 | 0.00 | 0.00 | 0.00 | 63 | 1009.4 |
| 20260906211502 | 79 | 360 | 0.0 | 9.0 | 0.00 | 0.00 | 0.00 | 66 | 1009.7 |
| 20260906204602 | 77 | 96 | 3.0 | 9.0 | 0.00 | 0.00 | 0.00 | 71 | 1010.3 |
| 20260906203059 | 76 | 23 | 4.0 | 10.0 | 0.00 | 0.00 | 0.00 | 73 | 1010.6 |
| 20260906201547 | 75 | 47 | 4.0 | 10.0 | 0.00 | 0.00 | 0.00 | 76 | 1010.7 |
| 20260906200043 | 74 | 346 | 7.0 | 13.0 | 0.00 | 0.00 | 0.00 | 78 | 1010.6 |
| 20260906194540 | 72 | 337 | 4.0 | 10.0 | 0.00 | 0.00 | 0.00 | 81 | 1011.0 |
| 20260906193038 | 72 | 309 | 7.0 | 12.0 | 0.00 | 0.00 | 0.00 | 83 | 1011.2 |
| 20260906191535 | 71 | 308 | 6.0 | 11.0 | 0.00 | 0.00 | 0.00 | 84 | 1011.3 |
| 20260906190031 | 70 | 329 | 6.0 | 10.0 | 0.00 | 0.00 | 0.00 | 86 | 1011.5 |
| 20260906184529 | 69 | 350 | 5.0 | 9.0 | 0.00 | 0.00 | 0.00 | 87 | 1011.5 |
| 20260906183026 | 69 | 336 | 6.0 | 9.0 | 0.00 | 0.00 | 0.00 | 88 | 1011.7 |
| 20260906181537 | 69 | 346 | 5.0 | 9.0 | 0.00 | 0.00 | 0.00 | 89 | 1011.8 |
| 20260906180039 | 69 | 325 | 5.0 | 9.0 | 0.00 | 0.00 | 0.00 | 89 | 1011.8 |
| 20260906174524 | 68 | 30 | 5.0 | 8.0 | 0.00 | 0.00 | 0.00 | 89 | 1011.7 |
| 20260906173027 | 68 | 20 | 3.0 | 8.0 | 0.00 | 0.00 | 0.00 | 90 | 1011.6 |
| 20260906171523 | 68 | 338 | 8.0 | 11.0 | 0.00 | 0.00 | 0.00 | 90 | 1011.2 |
| 20260906170127 | 68 | 1 | 5.0 | 10.0 | 0.00 | 0.00 | 0.00 | 90 | 1011.5 |
| 20260906164522 | 68 | 360 | 8.0 | 13.0 | 0.00 | 0.00 | 0.00 | 90 | 1011.5 |
| 20260906163021 | 68 | 349 | 6.0 | 11.0 | 0.00 | 0.00 | 0.00 | 92 | 1011.6 |
| 20260906161524 | 67 | 8 | 7.0 | 10.0 | 0.00 | 0.00 | 0.00 | 93 | 1011.6 |
| 20260906160028 | 67 | 19 | 9.0 | 12.0 | 0.00 | 0.00 | 0.00 | 94 | 1011.3 |
| 20260906154517 | 66 | 40 | 7.0 | 14.0 | 0.00 | 0.00 | 0.00 | 95 | 1011.3 |
| 20260906153020 | 66 | 53 | 11.0 | 18.0 | 0.00 | 0.00 | 0.00 | 95 | 1011.0 |
| 20260906151514 | 66 | 59 | 8.0 | 15.0 | 0.00 | 0.00 | 0.00 | 95 | 1011.1 |
| 20260906150014 | 65 | 56 | 7.0 | 13.0 | 0.00 | 0.00 | 0.00 | 95 | 1011.5 |
| 20260906144514 | 65 | 52 | 8.0 | 16.0 | 0.00 | 0.00 | 0.00 | 96 | 1011.5 |
| 20260906143011 | 65 | 15 | 7.0 | 10.0 | 0.00 | 0.00 | 0.00 | 96 | 1011.8 |
| 20260906141516 | 65 | 44 | 9.0 | 12.0 | 0.00 | 0.00 | 0.00 | 96 | 1011.9 |
| 20260906140009 | 64 | 71 | 3.0 | 10.0 | 0.00 | 0.00 | 0.00 | 95 | 1011.8 |
| 20260906134508 | 64 | 29 | 9.0 | 18.0 | 0.00 | 0.00 | 0.00 | 95 | 1011.2 |
| 20260906133005 | 64 | 3 | 15.0 | 18.0 | 0.00 | 0.00 | 0.00 | 95 | 1011.0 |
| 20260906131505 | 64 | 23 | 14.0 | 18.0 | 0.00 | 0.00 | 0.00 | 95 | 1010.9 |
| 20260906130002 | 64 | 1 | 11.0 | 13.0 | 0.00 | 0.00 | 0.00 | 95 | 1011.5 |
| 20260906124502 | 64 | 35 | 0.0 | 3.0 | 0.00 | 0.00 | 0.00 | 95 | 1012.9 |
| 20260906123001 | 64 | 35 | 0.0 | 2.0 | 0.00 | 0.00 | 0.00 | 95 | 1013.0 |
| 20260906121558 | 64 | 35 | 4.0 | 10.0 | 0.00 | 0.00 | 0.00 | 95 | 1012.7 |
| 20260906120059 | 64 | 358 | 7.0 | 10.0 | 0.00 | 0.00 | 0.00 | 95 | 1012.4 |
| 20260906114557 | 64 | 333 | 9.0 | 12.0 | 0.00 | 0.00 | 0.00 | 95 | 1012.2 |
| 20260906113056 | 64 | 308 | 9.0 | 12.0 | 0.00 | 0.00 | 0.00 | 95 | 1012.3 |
| 20260906111610 | 64 | 310 | 9.0 | 11.0 | 0.00 | 0.00 | 0.00 | 94 | 1012.3 |
| 20260906110057 | 64 | 319 | 7.0 | 11.0 | 0.00 | 0.00 | 0.00 | 94 | 1012.3 |
| 20260906104552 | 64 | 304 | 9.0 | 11.0 | 0.00 | 0.00 | 0.00 | 94 | 1012.3 |
| 20260906103051 | 64 | 318 | 8.0 | 10.0 | 0.00 | 0.00 | 0.00 | 94 | 1012.2 |
| 20260906101549 | 64 | 29 | 3.0 | 5.0 | 0.00 | 0.00 | 0.00 | 94 | 1011.9 |
| 20260906100054 | 64 | 31 | 5.0 | 7.0 | 0.00 | 0.00 | 0.00 | 94 | 1011.5 |
| 20260906094548 | 64 | 40 | 6.0 | 7.0 | 0.00 | 0.00 | 0.00 | 93 | 1011.5 |
| 20260906093045 | 65 | 31 | 7.0 | 10.0 | 0.00 | 0.00 | 0.00 | 93 | 1011.7 |
| 20260906091545 | 65 | 22 | 8.0 | 11.0 | 0.00 | 0.00 | 0.00 | 93 | 1011.7 |
| 20260906090041 | 66 | 17 | 9.0 | 11.0 | 0.00 | 0.00 | 0.00 | 92 | 1011.5 |
| 20260906084540 | 66 | 13 | 10.0 | 14.0 | 0.00 | 0.00 | 0.00 | 92 | 1011.5 |
| 20260906083036 | 66 | 8 | 10.0 | 11.0 | 0.00 | 0.00 | 0.00 | 92 | 1011.5 |
| 20260906081534 | 66 | 17 | 8.0 | 11.0 | 0.00 | 0.00 | 0.00 | 92 | 1011.9 |
| 20260906080034 | 66 | 30 | 8.0 | 12.0 | 0.00 | 0.00 | 0.00 | 91 | 1012.1 |
| 20260906074531 | 67 | 17 | 10.0 | 13.0 | 0.00 | 0.00 | 0.00 | 91 | 1012.2 |
| 20260906073031 | 67 | 15 | 10.0 | 13.0 | 0.00 | 0.00 | 0.00 | 90 | 1012.3 |
| 20260906071525 | 67 | 10 | 9.0 | 12.0 | 0.00 | 0.00 | 0.00 | 90 | 1012.2 |
| 20260906070023 | 67 | 13 | 8.0 | 12.0 | 0.00 | 0.00 | 0.00 | 88 | 1011.9 |
| 20260906064521 | 68 | 7 | 9.0 | 11.0 | 0.00 | 0.00 | 0.00 | 88 | 1012.2 |
| 20260906063018 | 68 | 15 | 10.0 | 13.0 | 0.00 | 0.00 | 0.00 | 87 | 1012.1 |
| 20260906061516 | 69 | 18 | 10.0 | 12.0 | 0.00 | 0.00 | 0.00 | 86 | 1012.2 |
| 20260906060024 | 69 | 15 | 10.0 | 12.0 | 0.00 | 0.00 | 0.00 | 86 | 1012.2 |
| 20260906054524 | 70 | 6 | 10.0 | 14.0 | 0.00 | 0.00 | 0.00 | 85 | 1012.3 |
| 20260906053012 | 70 | 10 | 11.0 | 14.0 | 0.00 | 0.00 | 0.00 | 84 | 1012.3 |
| 20260906051511 | 70 | 7 | 11.0 | 14.0 | 0.00 | 0.00 | 0.00 | 83 | 1012.4 |
| 20260906050111 | 71 | 359 | 11.0 | 14.0 | 0.00 | 0.00 | 0.00 | 82 | 1012.3 |
| 20260906044510 | 71 | 8 | 11.0 | 14.0 | 0.00 | 0.00 | 0.00 | 81 | 1012.5 |
| 20260906043015 | 71 | 6 | 10.0 | 12.0 | 0.00 | 0.00 | 0.00 | 81 | 1012.6 |
| 20260906041509 | 72 | 17 | 11.0 | 14.0 | 0.00 | 0.00 | 0.00 | 80 | 1012.4 |
| 20260906040022 | 72 | 3 | 9.0 | 11.0 | 0.00 | 0.00 | 0.00 | 80 | 1012.6 |
| 20260906034514 | 72 | 14 | 8.0 | 11.0 | 0.00 | 0.00 | 0.00 | 79 | 1012.6 |
| 20260906033021 | 72 | 19 | 8.0 | 11.0 | 0.00 | 0.00 | 0.00 | 79 | 1012.6 |
| 20260906031509 | 72 | 19 | 8.0 | 12.0 | 0.00 | 0.00 | 0.00 | 78 | 1012.5 |
| 20260906030005 | 72 | 20 | 10.0 | 13.0 | 0.00 | 0.00 | 0.00 | 78 | 1012.5 |
| 20260906024505 | 72 | 29 | 7.0 | 10.0 | 0.00 | 0.00 | 0.00 | 77 | 1012.4 |
| 20260906023004 | 72 | 38 | 6.0 | 9.0 | 0.00 | 0.00 | 0.00 | 76 | 1012.3 |
| 20260906021504 | 73 | 27 | 4.0 | 8.0 | 0.00 | 0.00 | 0.00 | 74 | 1012.3 |
| 20260906020000 | 74 | 19 | 9.0 | 11.0 | 0.00 | 0.00 | 0.00 | 72 | 1011.8 |
| 20260906014559 | 75 | 3 | 9.0 | 10.0 | 0.00 | 0.00 | 0.00 | 71 | 1011.6 |
| 20260906013101 | 76 | 352 | 7.0 | 9.0 | 0.00 | 0.00 | 0.00 | 70 | 1011.4 |
| 20260906011556 | 77 | 6 | 8.0 | 10.0 | 0.00 | 0.00 | 0.00 | 68 | 1011.2 |
| 20260906010055 | 78 | 15 | 9.0 | 13.0 | 0.00 | 0.00 | 0.00 | 67 | 1011.0 |
| 20260906004554 | 78 | 32 | 12.0 | 17.0 | 0.00 | 0.00 | 0.00 | 66 | 1010.9 |
| 20260906003054 | 79 | 36 | 12.0 | 16.0 | 0.00 | 0.00 | 0.00 | 66 | 1010.8 |
| 20260906001552 | 79 | 34 | 12.0 | 18.0 | 0.00 | 0.00 | 0.00 | 65 | 1010.7 |
| 20260906000051 | 80 | 36 | 14.0 | 24.0 | 0.00 | 0.00 | 0.00 | 65 | 1010.7 |
| 20260905234549 | 81 | 30 | 15.0 | 18.0 | 0.00 | 0.00 | 0.00 | 64 | 1010.3 |
| 20260905233056 | 81 | 36 | 12.0 | 17.0 | 0.00 | 0.00 | 0.00 | 63 | 1010.1 |
| 20260905231547 | 82 | 27 | 13.0 | 17.0 | 0.00 | 0.00 | 0.00 | 63 | 1010.0 |
| 20260905230046 | 82 | 21 | 11.0 | 16.0 | 0.00 | 0.00 | 0.00 | 63 | 1010.0 |
| 20260905224609 | 82 | 27 | 14.0 | 20.0 | 0.00 | 0.00 | 0.00 | 63 | 1010.0 |
| 20260905223046 | 83 | 4 | 10.0 | 18.0 | 0.00 | 0.00 | 0.00 | 62 | 1010.0 |
| 20260905221542 | 83 | 12 | 8.0 | 15.0 | 0.00 | 0.00 | 0.00 | 59 | 1009.9 |
| 20260905220041 | 83 | 348 | 7.0 | 12.0 | 0.00 | 0.00 | 0.00 | 61 | 1010.1 |
| 20260905214547 | 82 | 31 | 3.0 | 12.0 | 0.00 | 0.00 | 0.00 | 61 | 1010.1 |